Tracking 19909 objects as of 22-Oct-2019
HD Live streaming from Space Station
objects crossing your sky now

ATLAS 3B CENTAUR R/B

Track ATLAS 3B CENTAUR R/B now!
10-day predictions


NORAD ID: 28538
Int'l Code: 2005-004B
Perigee: 1,035.8 km
Apogee: 1,173.8 km
Inclination: 63.8 °
Period: 107.2 minutes
Semi major axis: 7475 km
RCS: Unknown
Launch date: February 3, 2005
Source: United States (US)
Launch site: AIR FORCE EASTERN TEST RANGE (AFETR)

Note: This is a ROCKET BODY
aabbcc
Your satellite tracking list
Your tracking list is empty




NASA's NSSDC Master Catalog

Two Line Element Set (TLE):
1 28538U 05004B   19280.09530912 0.00000000  00000-0  00000-0 0    07
2 28538  63.8356 334.5662 0092349  79.1915 280.8085 13.43125048    09
Source of the keplerian elements: McCants